Tracking 28096 objects as of 29-Sep-2023
HD Live streaming from Space Station
objects crossing your sky now

STARLINK-6247

Track STARLINK-6247 now!
10-day predictions
STARLINK-6247 is classified as:


NORAD ID: 57086
Int'l Code: 2023-088AQ
Perigee: 565.5 km
Apogee: 567.0 km
Inclination: 43.0 °
Period: 95.8 minutes
Semi major axis: 6937 km
RCS: Unknown
Launch date: June 22, 2023
Source: United States (US)
Launch site: AIR FORCE WESTERN TEST RANGE (AFWTR)
Your satellite tracking list
Your tracking list is empty




NASA's NSSDC Master Catalog

Two Line Element Set (TLE):
1 57086U 23088AQ  23271.39537710 -.00001252  00000-0 -77635-4 0  9991
2 57086  43.0014 268.4926 0001136 248.2173 111.8548 15.02529440 16147
Source of the keplerian elements: AFSPC